N5VKM Weather Reports


Display with metric or nautical units.
time (UTC)temp
F
wind
direction
speed
MPH
gust
MPH
rain 1hr
in
rain 24hr
in
rain mn
in
humidity
%
barometer
mb
20260904212049 99 331 0.0 0.0 0.00 0.00 0.00 44 1012.2
20260904211541 99 331 0.0 0.0 0.00 0.00 0.00 44 1012.2
20260904211028 99 332 0.0 0.0 0.00 0.00 0.00 44 1012.2
20260904210546 99 333 0.0 0.0 0.00 0.00 0.00 45 1012.3
20260904210034 98 333 0.0 0.0 0.00 0.00 0.00 45 1012.4
20260904205540 98 331 0.0 0.0 0.00 0.00 0.00 46 1012.5
20260904205031 98 334 0.0 0.0 0.00 0.00 0.00 46 1012.5
20260904204540 98 333 0.0 0.0 0.00 0.00 0.00 46 1012.5
20260904204047 99 331 0.0 0.0 0.00 0.00 0.00 45 1012.6
20260904203559 99 331 0.0 0.0 0.00 0.00 0.00 45 1012.6
20260904203045 99 333 0.0 0.0 0.00 0.00 0.00 46 1012.6
20260904202532 98 331 0.0 0.0 0.00 0.00 0.00 46 1012.6
20260904202105 98 331 0.0 0.0 0.00 0.00 0.00 46 1012.8
20260904201535 98 333 0.0 0.0 0.00 0.00 0.00 46 1012.8
20260904201044 98 331 0.0 0.0 0.00 0.00 0.00 47 1012.9
20260904200532 97 333 0.0 0.0 0.00 0.00 0.00 46 1013.0
20260904200046 97 331 0.0 0.0 0.00 0.00 0.00 46 1013.1
20260904195536 97 334 0.0 0.0 0.00 0.00 0.00 46 1013.2
20260904195048 97 331 0.0 0.0 0.00 0.00 0.00 46 1013.2
20260904194535 98 332 0.0 0.0 0.00 0.00 0.00 47 1013.3
20260904194032 97 331 0.0 0.0 0.00 0.00 0.00 47 1013.3
20260904193539 97 333 0.0 0.0 0.00 0.00 0.00 47 1013.4
20260904193046 97 331 0.0 0.0 0.00 0.00 0.00 48 1013.4
20260904192533 96 332 0.0 0.0 0.00 0.00 0.00 48 1013.5
20260904192107 96 331 0.0 0.0 0.00 0.00 0.00 47 1013.6
20260904191538 96 329 0.0 0.0 0.00 0.00 0.00 47 1013.6
20260904191048 96 332 0.0 0.0 0.00 0.00 0.00 47 1013.7
20260904190537 96 332 0.0 0.0 0.00 0.00 0.00 48 1013.7
20260904190110 96 331 0.0 0.0 0.00 0.00 0.00 48 1013.8
20260904185539 96 332 0.0 0.0 0.00 0.00 0.00 49 1013.8
20260904185037 96 333 0.0 0.0 0.00 0.00 0.00 50 1013.9
20260904184531 96 331 0.0 0.0 0.00 0.00 0.00 50 1013.9
20260904184037 95 331 0.0 0.0 0.00 0.00 0.00 51 1014.1
20260904183603 95 333 0.0 0.0 0.00 0.00 0.00 51 1014.1
20260904183038 95 331 0.0 0.0 0.00 0.00 0.00 50 1014.2
20260904182528 95 331 0.0 0.0 0.00 0.00 0.00 52 1014.2
20260904182037 95 331 0.0 0.0 0.00 0.00 0.00 52 1014.3
20260904181547 95 332 0.0 0.0 0.00 0.00 0.00 52 1014.4
20260904181036 95 332 0.0 0.0 0.00 0.00 0.00 52 1014.4
20260904180549 95 333 0.0 0.0 0.00 0.00 0.00 53 1014.5
20260904180037 95 333 0.0 0.0 0.00 0.00 0.00 52 1014.6
20260904175545 95 333 0.0 0.0 0.00 0.00 0.00 52 1014.6
20260904175031 95 333 0.0 0.0 0.00 0.00 0.00 52 1014.6
20260904174545 94 332 0.0 0.0 0.00 0.00 0.00 51 1014.8
20260904174055 94 332 0.0 0.0 0.00 0.00 0.00 53 1014.8
20260904173543 94 333 0.0 0.0 0.00 0.00 0.00 54 1014.8
20260904173031 93 331 0.0 0.0 0.00 0.00 0.00 54 1014.9
20260904172542 93 331 0.0 0.0 0.00 0.00 0.00 56 1014.9
20260904172030 93 331 0.0 0.0 0.00 0.00 0.00 56 1015.1
20260904171537 93 333 0.0 0.0 0.00 0.00 0.00 57 1015.2
20260904171033 93 333 0.0 0.0 0.00 0.00 0.00 58 1015.2
20260904170542 93 334 0.0 0.0 0.00 0.00 0.00 59 1015.3
20260904170030 92 334 0.0 0.0 0.00 0.00 0.00 58 1015.4
20260904165605 92 333 0.0 0.0 0.00 0.00 0.00 60 1015.4
20260904165038 91 334 0.0 0.0 0.00 0.00 0.00 60 1015.3
20260904164548 91 332 0.0 0.0 0.00 0.00 0.00 60 1015.4
20260904164036 91 332 0.0 0.0 0.00 0.00 0.00 62 1015.3
20260904163606 91 332 0.0 0.0 0.00 0.00 0.00 62 1015.4
20260904163051 90 331 0.0 0.0 0.00 0.00 0.00 64 1015.3
20260904162544 90 334 0.0 0.0 0.00 0.00 0.00 64 1015.3
20260904162037 90 335 0.0 0.0 0.00 0.00 0.00 64 1015.4
20260904161548 90 332 0.0 0.0 0.00 0.00 0.00 65 1015.4
20260904161035 89 333 0.0 0.0 0.00 0.00 0.00 67 1015.4
20260904160543 89 335 0.0 0.0 0.00 0.00 0.00 69 1015.4
20260904160030 88 332 0.0 0.0 0.00 0.00 0.00 68 1015.3
20260904155547 88 334 0.0 0.0 0.00 0.00 0.00 70 1015.4
20260904155037 88 335 0.0 0.0 0.00 0.00 0.00 70 1015.3
20260904154533 88 335 0.0 0.0 0.00 0.00 0.00 71 1015.3
20260904154041 87 334 0.0 0.0 0.00 0.00 0.00 71 1015.3
20260904153528 87 334 0.0 0.0 0.00 0.00 0.00 72 1015.3
20260904153041 87 333 0.0 0.0 0.00 0.00 0.00 73 1015.3
20260904152533 86 335 0.0 0.0 0.00 0.00 0.00 74 1015.3
20260904152040 86 335 0.0 0.0 0.00 0.00 0.00 75 1015.3
20260904151533 86 334 0.0 0.0 0.00 0.00 0.00 77 1015.3
20260904151107 85 333 0.0 0.0 0.00 0.00 0.00 78 1015.3
20260904150537 85 335 0.0 0.0 0.00 0.00 0.00 79 1015.3
20260904150033 85 333 0.0 0.0 0.00 0.00 0.00 79 1015.3
20260904145544 84 335 0.0 0.0 0.00 0.00 0.00 80 1015.2
20260904145031 84 333 0.0 0.0 0.00 0.00 0.00 81 1015.3
20260904144544 83 332 0.0 0.0 0.00 0.00 0.00 81 1015.3
20260904144035 83 333 0.0 0.0 0.00 0.00 0.00 82 1015.3
20260904143544 83 335 0.0 0.0 0.00 0.00 0.00 83 1015.3
20260904143034 82 333 0.0 0.0 0.00 0.00 0.00 84 1015.2
20260904142541 81 334 0.0 0.0 0.00 0.00 0.00 85 1015.2
20260904142047 81 333 0.0 0.0 0.00 0.00 0.00 85 1015.2
20260904141539 80 335 0.0 0.0 0.00 0.00 0.00 85 1015.3
20260904141050 79 333 0.0 0.0 0.00 0.00 0.00 85 1015.3
20260904140600 79 333 0.0 0.0 0.00 0.00 0.00 85 1015.3
20260904140045 79 334 0.0 0.0 0.00 0.00 0.00 85 1015.3
20260904135535 78 335 0.0 0.0 0.00 0.00 0.00 85 1015.2
20260904135046 78 332 0.0 0.0 0.00 0.00 0.00 85 1015.1
20260904134536 78 333 0.0 0.0 0.00 0.00 0.00 85 1015.1
20260904134108 78 334 0.0 0.0 0.00 0.00 0.00 85 1015.1
20260904133536 78 334 0.0 0.0 0.00 0.00 0.00 85 1015.1
20260904133028 77 333 0.0 0.0 0.00 0.00 0.00 85 1015.0
20260904132541 77 333 0.0 0.0 0.00 0.00 0.00 85 1014.9
20260904132032 77 333 0.0 0.0 0.00 0.00 0.00 85 1014.9
20260904131539 77 333 0.0 0.0 0.00 0.00 0.00 85 1014.8
20260904131111 77 333 0.0 0.0 0.00 0.00 0.00 86 1014.8
20260904130540 77 333 0.0 0.0 0.00 0.00 0.00 86 1014.7
20260904130048 76 333 0.0 0.0 0.00 0.00 0.00 85 1014.7
20260904125556 76 333 0.0 0.0 0.00 0.00 0.00 85 1014.7
20260904125043 76 334 0.0 0.0 0.00 0.00 0.00 86 1014.7
20260904124534 76 333 0.0 0.0 0.00 0.00 0.00 86 1014.6
20260904124104 75 334 0.0 0.0 0.00 0.00 0.00 85 1014.6
20260904123531 75 333 0.0 0.0 0.00 0.00 0.00 85 1014.6
20260904123041 75 333 0.0 0.0 0.00 0.00 0.00 85 1014.5
20260904122529 75 333 0.0 0.0 0.00 0.00 0.00 85 1014.5
20260904122105 75 334 0.0 0.0 0.00 0.00 0.00 85 1014.5
20260904121535 75 335 0.0 0.0 0.00 0.00 0.00 85 1014.5
20260904121043 75 333 0.0 0.0 0.00 0.00 0.00 85 1014.5
20260904120530 75 334 0.0 0.0 0.00 0.00 0.00 85 1014.4
20260904120037 75 334 0.0 0.0 0.00 0.00 0.00 85 1014.4
20260904115545 75 333 0.0 0.0 0.00 0.00 0.00 85 1014.3
20260904115035 75 333 0.0 0.0 0.00 0.00 0.00 85 1014.3
20260904114545 75 333 0.0 0.0 0.00 0.00 0.00 85 1014.2
20260904114054 75 334 0.0 0.0 0.00 0.00 0.00 85 1014.2
20260904113540 75 333 0.0 0.0 0.00 0.00 0.00 85 1014.1
20260904113055 75 333 0.0 0.0 0.00 0.00 0.00 85 1014.2
20260904112603 75 333 0.0 0.0 0.00 0.00 0.00 85 1014.1
20260904112032 75 333 0.0 0.0 0.00 0.00 0.00 85 1014.1
20260904111540 75 334 0.0 0.0 0.00 0.00 0.00 85 1014.0
20260904111028 75 333 0.0 0.0 0.00 0.00 0.00 85 1014.0
20260904110538 75 333 0.0 0.0 0.00 0.00 0.00 85 1014.1
20260904110028 75 333 0.0 0.0 0.00 0.00 0.00 85 1014.1
20260904105538 75 333 0.0 0.0 0.00 0.02 0.00 85 1014.1
20260904105031 76 333 0.0 0.0 0.00 0.02 0.00 85 1014.0
20260904104539 76 333 0.0 0.0 0.00 0.02 0.00 85 1014.0
20260904104027 76 333 0.0 0.0 0.00 0.02 0.00 85 1014.0
20260904103538 76 333 0.0 0.0 0.00 0.02 0.00 85 1013.9
20260904103032 76 333 0.0 0.0 0.00 0.02 0.00 85 1014.0
20260904102540 76 333 0.0 0.0 0.00 0.02 0.00 84 1013.9
20260904102035 76 333 0.0 0.0 0.00 0.02 0.00 84 1013.9
20260904101543 76 333 0.0 0.0 0.00 0.02 0.00 84 1013.8
20260904101033 76 333 0.0 0.0 0.00 0.02 0.00 84 1013.8
20260904100543 76 333 0.0 0.0 0.00 0.02 0.00 84 1013.8
20260904100034 76 333 0.0 0.0 0.00 0.02 0.00 84 1013.8
20260904095606 76 333 0.0 0.0 0.00 0.02 0.00 84 1013.8
20260904095034 77 333 0.0 0.0 0.00 0.02 0.00 84 1013.8
20260904094604 77 333 0.0 0.0 0.00 0.02 0.00 84 1013.7
20260904094029 77 333 0.0 0.0 0.00 0.02 0.00 83 1013.8
20260904093600 77 333 0.0 0.0 0.00 0.02 0.00 83 1013.8
20260904093027 77 334 0.0 0.0 0.00 0.02 0.00 83 1013.8
20260904092541 77 334 0.0 0.0 0.00 0.02 0.00 83 1013.8
20260904092028 77 334 0.0 0.0 0.00 0.02 0.00 83 1013.8
20260904091538 78 334 0.0 0.0 0.00 0.02 0.00 82 1013.8
20260904091027 78 334 0.0 0.0 0.00 0.02 0.00 82 1013.8
20260904090537 78 334 0.0 0.0 0.00 0.02 0.00 82 1013.8
20260904090026 78 334 0.0 0.0 0.00 0.02 0.00 82 1013.8
20260904085537 78 334 0.0 0.0 0.00 0.02 0.00 82 1013.7
20260904085031 78 334 0.0 0.0 0.00 0.02 0.00 82 1013.6
20260904084605 78 333 0.0 0.0 0.00 0.02 0.00 82 1013.6
20260904084036 78 333 0.0 0.0 0.00 0.02 0.00 82 1013.6
20260904083528 78 333 0.0 0.0 0.00 0.02 0.00 82 1013.5
20260904083102 78 334 0.0 0.0 0.00 0.02 0.00 81 1013.5
20260904082549 78 333 0.0 0.0 0.00 0.02 0.00 81 1013.6
20260904082035 78 334 0.0 0.0 0.00 0.02 0.00 81 1013.7
20260904081549 78 336 0.0 0.0 0.00 0.02 0.00 81 1013.7
20260904081055 78 334 0.0 0.0 0.00 0.02 0.00 81 1013.6
20260904080531 78 336 0.0 0.0 0.00 0.02 0.00 81 1013.6
20260904080041 78 334 0.0 0.0 0.00 0.02 0.00 81 1013.6
20260904075558 78 334 0.0 0.0 0.00 0.02 0.00 81 1013.5
20260904075044 78 333 0.0 0.0 0.00 0.02 0.00 80 1013.5
20260904074532 78 334 0.0 0.0 0.00 0.02 0.00 80 1013.7
20260904074103 78 334 0.0 0.0 0.00 0.02 0.00 80 1013.7
20260904073531 78 334 0.0 0.0 0.00 0.02 0.00 80 1013.6
20260904073040 78 334 0.0 0.0 0.00 0.02 0.00 80 1013.7
20260904072527 78 335 0.0 0.0 0.00 0.02 0.00 80 1013.7
20260904072040 78 335 0.0 0.0 0.00 0.02 0.00 80 1013.7
20260904071531 78 334 0.0 0.0 0.00 0.02 0.00 79 1013.7
20260904071043 78 334 0.0 0.0 0.00 0.02 0.00 79 1013.7
20260904070531 78 334 0.0 0.0 0.00 0.02 0.00 79 1013.7
20260904070057 78 334 0.0 0.0 0.00 0.02 0.00 79 1013.8
20260904065559 78 335 0.0 0.0 0.00 0.02 0.00 78 1013.8
20260904065110 79 335 0.0 0.0 0.00 0.02 0.00 78 1013.8
20260904064536 79 335 0.0 0.0 0.00 0.02 0.00 78 1013.9
20260904064043 79 335 0.0 0.0 0.00 0.02 0.00 78 1013.9
20260904063541 79 336 0.0 0.0 0.00 0.02 0.00 78 1013.9
20260904063030 79 335 0.0 0.0 0.00 0.02 0.00 78 1013.8
20260904062539 79 335 0.0 0.0 0.00 0.02 0.00 78 1013.8
20260904062109 79 334 0.0 0.0 0.00 0.02 0.00 78 1013.8
20260904061541 79 334 0.0 0.0 0.00 0.02 0.00 78 1013.8
20260904061034 79 334 0.0 0.0 0.00 0.02 0.00 77 1013.8
20260904060608 79 333 0.0 0.0 0.00 0.02 0.00 77 1013.9
20260904060054 79 334 0.0 0.0 0.00 0.02 0.00 77 1013.8
20260904055607 79 334 0.0 0.0 0.00 0.02 0.00 76 1013.8
20260904055103 79 336 0.0 0.0 0.00 0.02 0.00 76 1013.8
20260904054532 79 335 0.0 0.0 0.00 0.02 0.00 76 1013.8
20260904054038 79 336 0.0 0.0 0.00 0.02 0.00 76 1013.8
20260904053532 79 335 0.0 0.0 0.00 0.02 0.00 76 1013.8
20260904053039 79 334 0.0 0.0 0.00 0.02 0.00 76 1013.8
20260904052550 80 334 0.0 0.0 0.00 0.02 0.00 76 1013.8
20260904052038 80 334 0.0 0.0 0.00 0.02 0.00 75 1013.8
20260904051531 80 333 0.0 0.0 0.00 0.02 0.00 75 1013.7
20260904051102 80 335 0.0 0.0 0.00 0.02 0.00 75 1013.7
20260904050548 80 334 0.0 0.0 0.00 0.02 0.00 75 1013.8
20260904050039 80 333 0.0 0.0 0.00 0.02 0.00 75 1013.6
20260904045550 80 334 0.0 0.0 0.00 0.02 0.02 75 1013.6
20260904045037 80 336 0.0 0.0 0.00 0.02 0.02 76 1013.7
20260904044549 80 333 0.0 0.0 0.00 0.02 0.02 76 1013.7
20260904044037 81 334 0.0 0.0 0.00 0.02 0.02 76 1013.6
20260904043547 81 334 0.0 0.0 0.00 0.02 0.02 76 1013.7
20260904043035 81 334 0.0 0.0 0.00 0.02 0.02 75 1013.7
20260904042546 81 333 0.0 0.0 0.00 0.02 0.02 75 1013.8
20260904042034 81 333 0.0 0.0 0.00 0.02 0.02 75 1013.7
20260904041546 81 333 0.0 0.0 0.00 0.02 0.02 74 1013.7
20260904041033 81 334 0.0 0.0 0.00 0.02 0.02 74 1013.7
20260904040543 82 333 0.0 0.0 0.00 0.02 0.02 74 1013.7
20260904040030 82 333 0.0 0.0 0.00 0.02 0.02 74 1013.7
20260904035541 82 334 0.0 0.0 0.00 0.02 0.02 74 1013.7
20260904035052 82 334 0.0 0.0 0.00 0.02 0.02 74 1013.7
20260904034541 82 333 0.0 0.0 0.00 0.02 0.02 73 1013.7
20260904034029 82 333 0.0 0.0 0.00 0.02 0.02 73 1013.8
20260904033603 82 333 0.0 0.0 0.00 0.02 0.02 73 1013.8
20260904033034 83 333 0.0 0.0 0.00 0.02 0.02 73 1013.8
20260904032531 83 333 0.0 0.0 0.00 0.02 0.02 74 1013.7
20260904032043 83 334 0.0 0.0 0.00 0.02 0.02 75 1013.7
20260904031553 83 336 0.0 0.0 0.00 0.02 0.02 75 1013.7
20260904031042 83 333 0.0 0.0 0.00 0.02 0.02 76 1013.7
20260904030533 83 333 0.0 0.0 0.00 0.02 0.02 76 1013.6
20260904030100 83 333 0.0 0.0 0.00 0.02 0.02 76 1013.5
20260904025532 83 334 0.0 0.0 0.00 0.02 0.02 76 1013.5
20260904025030 83 333 0.0 0.0 0.00 0.02 0.02 75 1013.4
20260904024545 83 334 0.0 0.0 0.00 0.02 0.02 75 1013.3
20260904024053 83 333 0.0 0.0 0.00 0.02 0.02 75 1013.4
20260904023539 83 333 0.0 0.0 0.00 0.02 0.02 74 1013.2
20260904023048 83 333 0.0 0.0 0.00 0.02 0.02 74 1013.1
20260904022536 83 333 0.0 0.0 0.00 0.02 0.02 73 1013.0
20260904022050 83 333 0.0 0.0 0.00 0.02 0.02 73 1012.9
20260904021547 84 333 0.0 0.0 0.00 0.02 0.02 73 1012.8
20260904021033 84 333 0.0 0.0 0.00 0.02 0.02 72 1012.8
20260904020544 84 333 0.0 0.0 0.00 0.02 0.02 72 1012.7
20260904020034 84 333 0.0 0.0 0.00 0.02 0.02 72 1012.7
20260904015541 84 333 0.0 0.0 0.00 0.02 0.02 71 1012.5
20260904015033 84 333 0.0 0.0 0.00 0.02 0.02 71 1012.5
20260904014543 84 333 0.0 0.0 0.00 0.02 0.02 71 1012.4
20260904014032 84 333 0.0 0.0 0.00 0.02 0.02 70 1012.4
20260904013544 84 334 0.0 0.0 0.00 0.02 0.02 70 1012.4
20260904013034 85 333 0.0 0.0 0.00 0.02 0.02 69 1012.4
20260904012544 85 333 0.0 0.0 0.00 0.02 0.02 69 1012.4
20260904012058 85 335 0.0 0.0 0.00 0.02 0.02 69 1012.3
20260904011551 85 333 0.0 0.0 0.00 0.02 0.02 68 1012.3
20260904011106 85 333 0.0 0.0 0.00 0.02 0.02 68 1012.3
20260904010542 85 334 0.0 0.0 0.00 0.02 0.02 67 1012.2
20260904010050 85 333 0.0 0.0 0.00 0.02 0.02 67 1012.2
20260904005539 85 333 0.0 0.0 0.00 0.02 0.02 66 1012.3
20260904005031 86 333 0.0 0.0 0.00 0.02 0.02 66 1012.3
20260904004603 86 333 0.0 0.0 0.00 0.02 0.02 65 1012.2
20260904004028 86 333 0.0 0.0 0.00 0.02 0.02 65 1012.2
20260904003547 86 333 0.0 0.0 0.00 0.02 0.02 66 1012.1
20260904003035 86 333 0.0 0.0 0.00 0.02 0.02 66 1012.1
20260904002546 87 333 0.0 0.0 0.00 0.02 0.02 65 1012.0
20260904002033 87 333 0.0 0.0 0.00 0.02 0.02 65 1012.0
20260904001544 87 332 0.0 0.0 0.00 0.02 0.02 65 1012.0
20260904001031 87 333 0.0 0.0 0.00 0.02 0.02 66 1012.0
20260904000539 87 332 0.0 0.0 0.00 0.02 0.02 66 1012.0
20260904000047 87 333 0.0 0.0 0.00 0.02 0.02 66 1012.0
20260903235540 87 332 0.0 0.0 0.00 0.02 0.02 66 1012.0
20260903235047 88 333 0.0 0.0 0.00 0.02 0.02 66 1011.9
20260903234539 88 332 0.0 0.0 0.00 0.02 0.02 65 1011.9
20260903234045 88 333 0.0 0.0 0.00 0.02 0.02 65 1011.8
20260903233533 88 333 0.0 0.0 0.00 0.02 0.02 65 1011.8
20260903233031 88 333 0.0 0.0 0.00 0.02 0.02 65 1011.7
20260903232546 89 332 0.0 0.0 0.00 0.02 0.02 64 1011.7
20260903232034 89 333 0.0 0.0 0.00 0.02 0.02 64 1011.6
20260903231543 89 333 0.0 0.0 0.00 0.02 0.02 64 1011.6
20260903231033 89 333 0.0 0.0 0.00 0.02 0.02 64 1011.6
20260903230542 89 333 0.0 0.0 0.00 0.02 0.02 64 1011.6
20260903230033 89 333 0.0 0.0 0.00 0.02 0.02 65 1011.6
20260903225544 89 333 0.0 0.0 0.00 0.02 0.02 65 1011.6
20260903225036 89 333 0.0 0.0 0.00 0.02 0.02 64 1011.6
20260903224531 89 333 0.0 0.0 0.00 0.02 0.02 64 1011.6
20260903224102 89 333 0.0 0.0 0.00 0.02 0.02 64 1011.7
20260903223528 89 331 0.0 0.0 0.00 0.02 0.02 64 1011.6
20260903223043 89 333 0.0 0.0 0.00 0.02 0.02 65 1011.7
20260903222549 89 332 0.0 0.0 0.00 0.02 0.02 65 1011.7
20260903222040 89 331 0.0 0.0 0.00 0.02 0.02 65 1011.7
20260903221550 89 331 0.0 0.0 0.00 0.02 0.02 65 1011.7
20260903221047 89 334 0.0 0.0 0.00 0.02 0.02 65 1011.6
20260903220533 89 331 0.0 0.0 0.00 0.02 0.02 66 1011.7
20260903220031 89 333 0.0 0.0 0.00 0.02 0.02 66 1011.7
20260903215539 89 333 0.0 0.0 0.00 0.02 0.02 66 1011.8
20260903215033 89 334 0.0 0.0 0.00 0.02 0.02 65 1011.9
20260903214605 89 333 0.0 0.0 0.00 0.02 0.02 65 1011.8
20260903214035 89 333 0.0 0.0 0.00 0.02 0.02 65 1011.9
20260903213546 89 332 0.0 0.0 0.00 0.02 0.02 64 1011.9
20260903213055 89 332 0.0 0.0 0.00 0.02 0.02 65 1011.9
20260903212543 89 332 0.0 0.0 0.00 0.02 0.02 64 1012.0